Tracking 18980 objects as of 18-Feb-2018
HD Live streaming from Space Station
objects crossing your sky now

CZ-3B R/B

Track CZ-3B R/B now!


NORAD ID: 43040
Int'l Code: 2017-078B
Perigee: 124.7 km
Apogee: 37,339.1 km
Inclination: 26.2 °
Period: 659.7 minutes
Semi major axis: 25102 km
RCS: Unknown
Launch date: December 10, 2017
Source: People's Republic of China (PRC)
Launch site: Xichang Space Center, China (XSC)

Note: This is a ROCKET BODY
aabbcc
Your satellite tracking list
Your tracking list is empty




NASA's NSSDC Master Catalog

Two Line Element Set (TLE):
1 43040U 17078B   18031.10713375  .00063603  34930-4  10000-3 0  9999
2 43040  26.1619 309.4633 7412381 207.9653 349.1929  2.18281988  1032
Source of the keplerian elements: AFSPC